NOZ4PL ENCN-EKCH

Flight info

Callsign NOZ4PL
Flight time 0h 41m
Altitude 33000
Route AMSEV DCT TESPI
Aircraft B38M/M-SDE1FGHILORVWXY/HB1

Departure

Time 2026-05-08 15:16
Airport Kristiansand Airport (ENCN)

Arrival

Time 2026-05-08 15:58
Airport Copenhagen Kastrup Airport (EKCH)
Time Latitude Longitude Altitude Speed Heading
2026-05-08 15:02 58.20207 8.07499 48 ft 0 kts 178°
2026-05-08 15:13 58.20196 8.07516 52 ft 8 kts 123°
2026-05-08 15:14 58.20273 8.07697 53 ft 30 kts 34°
2026-05-08 15:14 58.20419 8.08025 55 ft 34 kts 52°
2026-05-08 15:14 58.20545 8.08399 57 ft 32 kts 83°
2026-05-08 15:14 58.20612 8.08794 54 ft 33 kts 43°
2026-05-08 15:15 58.20802 8.09038 59 ft 33 kts 35°
2026-05-08 15:15 58.20997 8.09293 59 ft 35 kts 34°
2026-05-08 15:15 58.21141 8.09498 61 ft 11 kts 326°
2026-05-08 15:15 58.21115 8.09450 60 ft 18 kts 216°
2026-05-08 15:16 58.20754 8.08972 56 ft 108 kts 215°
2026-05-08 15:16 58.19942 8.07900 238 ft 163 kts 215°
2026-05-08 15:16 58.18983 8.06643 1255 ft 169 kts 211°
2026-05-08 15:16 58.17897 8.05718 2246 ft 180 kts 200°
2026-05-08 15:17 58.16620 8.04883 2990 ft 206 kts 200°
2026-05-08 15:17 58.15202 8.03990 3932 ft 223 kts 200°
2026-05-08 15:17 58.13728 8.03079 5123 ft 225 kts 199°
2026-05-08 15:17 58.12225 8.02159 6345 ft 229 kts 198°
2026-05-08 15:18 58.10698 8.01235 7500 ft 232 kts 198°
2026-05-08 15:18 58.09106 8.00458 8460 ft 245 kts 185°
2026-05-08 15:18 58.07379 8.01035 9220 ft 266 kts 157°
2026-05-08 15:18 58.05852 8.03059 10349 ft 270 kts 144°
2026-05-08 15:19 58.04336 8.05287 11116 ft 285 kts 145°
2026-05-08 15:19 58.02715 8.07662 11670 ft 306 kts 144°
2026-05-08 15:19 58.00992 8.10203 12297 ft 322 kts 143°
2026-05-08 15:19 57.99371 8.13262 13040 ft 335 kts 131°
2026-05-08 15:20 57.97837 8.16594 13988 ft 339 kts 133°
2026-05-08 15:20 57.96261 8.19949 14765 ft 345 kts 134°
2026-05-08 15:20 57.94662 8.23344 15569 ft 349 kts 134°
2026-05-08 15:20 57.93032 8.26798 16349 ft 355 kts 134°
2026-05-08 15:21 57.91384 8.30286 17096 ft 360 kts 134°
2026-05-08 15:21 57.90276 8.32628 17605 ft 363 kts 134°
2026-05-08 15:21 57.88584 8.36198 18358 ft 368 kts 134°
2026-05-08 15:21 57.86870 8.39810 19010 ft 372 kts 134°
2026-05-08 15:22 57.85139 8.43454 19674 ft 375 kts 134°
2026-05-08 15:22 57.83386 8.47136 20326 ft 379 kts 134°
2026-05-08 15:22 57.81621 8.50838 20975 ft 382 kts 134°
2026-05-08 15:22 57.79840 8.54568 21624 ft 385 kts 134°
2026-05-08 15:23 57.78047 8.58316 22290 ft 388 kts 134°
2026-05-08 15:23 57.76239 8.62090 22889 ft 392 kts 134°
2026-05-08 15:23 57.74410 8.65903 23504 ft 395 kts 134°
2026-05-08 15:23 57.72560 8.69752 24043 ft 399 kts 134°
2026-05-08 15:24 57.70720 8.73575 24567 ft 401 kts 134°
2026-05-08 15:24 57.68846 8.77460 25102 ft 403 kts 135°
2026-05-08 15:24 57.66730 8.80836 25601 ft 400 kts 151°
2026-05-08 15:24 57.64291 8.83377 26073 ft 403 kts 152°
2026-05-08 15:25 57.61845 8.85962 26550 ft 405 kts 153°
2026-05-08 15:25 57.59377 8.88529 27031 ft 408 kts 153°
2026-05-08 15:25 57.56881 8.91096 27485 ft 411 kts 153°
2026-05-08 15:25 57.54371 8.93661 27966 ft 413 kts 153°
2026-05-08 15:26 57.51849 8.96231 28416 ft 415 kts 153°
2026-05-08 15:26 57.49303 8.98820 28863 ft 417 kts 153°
2026-05-08 15:26 57.46749 9.01411 29306 ft 420 kts 153°
2026-05-08 15:26 57.44178 9.04017 29746 ft 421 kts 153°
2026-05-08 15:27 57.41600 9.06625 30205 ft 423 kts 153°
2026-05-08 15:27 57.39009 9.09241 30565 ft 426 kts 153°
2026-05-08 15:27 57.36404 9.11868 30895 ft 428 kts 153°
2026-05-08 15:27 57.33768 9.14521 31229 ft 431 kts 153°
2026-05-08 15:28 57.31126 9.17176 31554 ft 433 kts 153°
2026-05-08 15:28 57.28452 9.19859 31821 ft 437 kts 153°
2026-05-08 15:28 57.25812 9.22504 32174 ft 438 kts 153°
2026-05-08 15:28 57.23131 9.25184 32606 ft 438 kts 153°
2026-05-08 15:29 57.20452 9.27859 33029 ft 437 kts 153°
2026-05-08 15:29 57.17770 9.30533 33252 ft 439 kts 153°
2026-05-08 15:29 57.12411 9.35861 33227 ft 436 kts 153°
2026-05-08 15:30 57.07070 9.41153 33236 ft 436 kts 153°
2026-05-08 15:30 57.01725 9.46431 33218 ft 436 kts 153°
2026-05-08 15:31 56.96351 9.51722 33237 ft 439 kts 153°
2026-05-08 15:31 56.90975 9.56997 33231 ft 439 kts 153°
2026-05-08 15:32 56.85617 9.62237 33225 ft 439 kts 153°
2026-05-08 15:32 56.80228 9.67490 33227 ft 439 kts 153°
2026-05-08 15:33 56.74838 9.72726 33228 ft 439 kts 153°
2026-05-08 15:33 56.69440 9.77954 33227 ft 441 kts 153°
2026-05-08 15:34 56.64008 9.83196 33230 ft 442 kts 153°
2026-05-08 15:34 56.58578 9.88421 33230 ft 442 kts 153°
2026-05-08 15:35 56.53142 9.93633 33223 ft 440 kts 153°
2026-05-08 15:35 56.47750 9.98786 33245 ft 442 kts 153°
2026-05-08 15:36 56.42309 10.03969 33223 ft 443 kts 153°
2026-05-08 15:36 56.36824 10.09179 33222 ft 446 kts 153°
2026-05-08 15:37 56.31338 10.14370 33233 ft 446 kts 153°
2026-05-08 15:37 56.25858 10.19540 32868 ft 443 kts 153°
2026-05-08 15:38 56.23107 10.22130 31921 ft 447 kts 153°
2026-05-08 15:38 56.20359 10.24711 31270 ft 444 kts 153°
2026-05-08 15:38 56.17642 10.27260 30807 ft 437 kts 153°
2026-05-08 15:38 56.14969 10.29763 30298 ft 431 kts 153°
2026-05-08 15:39 56.12345 10.32216 29599 ft 429 kts 153°
2026-05-08 15:39 56.09705 10.34680 29008 ft 430 kts 153°
2026-05-08 15:39 56.07013 10.37191 28437 ft 443 kts 153°
2026-05-08 15:39 56.04269 10.39746 27848 ft 447 kts 153°
2026-05-08 15:40 56.01501 10.42320 27267 ft 448 kts 153°
2026-05-08 15:40 55.98728 10.44894 26677 ft 452 kts 153°
2026-05-08 15:40 55.95905 10.47510 26040 ft 460 kts 153°
2026-05-08 15:40 55.93101 10.50285 25395 ft 462 kts 146°
2026-05-08 15:41 55.90754 10.54174 24748 ft 463 kts 128°
2026-05-08 15:41 55.89188 10.59161 24245 ft 463 kts 111°
2026-05-08 15:41 55.88407 10.64703 23680 ft 461 kts 102°
2026-05-08 15:41 55.87754 10.70265 22983 ft 458 kts 103°
2026-05-08 15:42 55.87083 10.75792 22402 ft 454 kts 103°
2026-05-08 15:42 55.86414 10.81267 21840 ft 450 kts 103°
2026-05-08 15:42 55.85747 10.86691 21285 ft 447 kts 103°
2026-05-08 15:42 55.85079 10.92081 20733 ft 443 kts 104°
2026-05-08 15:43 55.84305 10.97362 20133 ft 439 kts 105°
2026-05-08 15:43 55.83539 11.02541 19606 ft 436 kts 105°
2026-05-08 15:43 55.82775 11.07739 19100 ft 433 kts 105°
2026-05-08 15:43 55.82018 11.12890 18593 ft 430 kts 105°
2026-05-08 15:44 55.81263 11.18016 18046 ft 426 kts 105°
2026-05-08 15:44 55.80512 11.23094 17558 ft 423 kts 105°
2026-05-08 15:44 55.79765 11.28139 17367 ft 421 kts 105°
2026-05-08 15:44 55.79018 11.33162 17174 ft 420 kts 105°
2026-05-08 15:45 55.78272 11.38166 16983 ft 418 kts 105°
2026-05-08 15:45 55.77531 11.43144 16768 ft 417 kts 105°
2026-05-08 15:45 55.77185 11.48230 16293 ft 414 kts 94°
2026-05-08 15:45 55.76952 11.53308 15884 ft 410 kts 96°
2026-05-08 15:46 55.76684 11.58325 15490 ft 407 kts 97°
2026-05-08 15:46 55.76400 11.63294 15077 ft 404 kts 97°
2026-05-08 15:46 55.76106 11.68237 14669 ft 401 kts 97°
2026-05-08 15:46 55.75808 11.73149 14260 ft 398 kts 97°
2026-05-08 15:47 55.75510 11.78004 13841 ft 394 kts 97°
2026-05-08 15:47 55.75213 11.82829 13408 ft 392 kts 98°
2026-05-08 15:47 55.74930 11.87539 12928 ft 385 kts 97°
2026-05-08 15:47 55.74656 11.92233 12545 ft 382 kts 97°
2026-05-08 15:48 55.74103 12.01568 11712 ft 378 kts 97°
2026-05-08 15:48 55.73826 12.06186 11258 ft 375 kts 97°
2026-05-08 15:48 55.73550 12.10761 10789 ft 372 kts 97°
2026-05-08 15:49 55.73274 12.15301 10291 ft 368 kts 97°
2026-05-08 15:49 55.73000 12.19797 9834 ft 363 kts 97°
2026-05-08 15:49 55.72726 12.24255 9383 ft 363 kts 97°
2026-05-08 15:49 55.72453 12.28676 8817 ft 360 kts 97°
2026-05-08 15:50 55.72179 12.33081 8228 ft 357 kts 97°
2026-05-08 15:50 55.71908 12.37421 7787 ft 350 kts 97°
2026-05-08 15:50 55.71640 12.41676 7382 ft 345 kts 97°
2026-05-08 15:50 55.71374 12.45887 6954 ft 341 kts 96°
2026-05-08 15:51 55.71191 12.49952 6524 ft 320 kts 86°
2026-05-08 15:51 55.71766 12.53638 6092 ft 304 kts 64°
2026-05-08 15:51 55.72713 12.56861 5763 ft 286 kts 64°
2026-05-08 15:51 55.73576 12.59897 5438 ft 272 kts 64°
2026-05-08 15:52 55.74420 12.62862 5117 ft 262 kts 65°
2026-05-08 15:52 55.75345 12.65585 4859 ft 258 kts 54°
2026-05-08 15:52 55.76417 12.68025 4740 ft 238 kts 54°
2026-05-08 15:52 55.77386 12.70249 4617 ft 222 kts 54°
2026-05-08 15:53 55.78324 12.72412 4469 ft 220 kts 54°
2026-05-08 15:53 55.79020 12.74785 4304 ft 217 kts 79°
2026-05-08 15:53 55.78908 12.77420 4157 ft 217 kts 109°
2026-05-08 15:53 55.78115 12.79702 4035 ft 218 kts 127°
2026-05-08 15:54 55.77159 12.81763 3683 ft 215 kts 129°
2026-05-08 15:54 55.75956 12.83297 3314 ft 215 kts 158°
2026-05-08 15:54 55.74484 12.83505 3028 ft 214 kts 188°
2026-05-08 15:54 55.73092 12.82683 2783 ft 211 kts 202°
2026-05-08 15:55 55.71850 12.81299 2502 ft 211 kts 216°
2026-05-08 15:55 55.69685 12.77846 1933 ft 207 kts 220°
2026-05-08 15:55 55.68607 12.76171 1655 ft 204 kts 219°
2026-05-08 15:56 55.67598 12.74604 1392 ft 181 kts 219°
2026-05-08 15:56 55.66717 12.73235 1173 ft 157 kts 219°
2026-05-08 15:56 55.65932 12.72018 956 ft 146 kts 219°
2026-05-08 15:56 55.65181 12.70851 747 ft 145 kts 219°
2026-05-08 15:57 55.64424 12.69676 553 ft 145 kts 219°
2026-05-08 15:57 55.63671 12.68500 358 ft 142 kts 217°
2026-05-08 15:57 55.62941 12.67370 160 ft 137 kts 219°
2026-05-08 15:57 55.62223 12.66261 19 ft 131 kts 220°
2026-05-08 15:58 55.61772 12.65566 25 ft 46 kts 221°
2026-05-08 15:58 55.61604 12.65196 20 ft 32 kts 259°
2026-05-08 15:58 55.61690 12.64868 20 ft 18 kts 317°
2026-05-08 15:58 55.61809 12.64791 21 ft 20 kts 356°
2026-05-08 15:59 55.61939 12.64869 20 ft 22 kts 33°
2026-05-08 15:59 55.62074 12.64839 25 ft 31 kts 303°
2026-05-08 15:59 55.62256 12.64347 21 ft 55 kts 304°
2026-05-08 15:59 55.62472 12.63824 24 ft 46 kts 320°
2026-05-08 16:00 55.62595 12.63777 27 ft 0 kts 10°
2026-05-08 16:00 55.62601 12.63779 27 ft 1 kts 12°
2026-05-08 16:00 55.62651 12.63816 27 ft 18 kts 30°
2026-05-08 16:01 55.62781 12.63963 29 ft 24 kts 32°
2026-05-08 16:01 55.62857 12.64183 25 ft 9 kts 75°
2026-05-08 16:01 55.62855 12.64246 23 ft 4 kts 99°
2026-05-08 16:01 55.62854 12.64252 23 ft 0 kts 99°